Ft Lauderdale, FL

5:38 PM EST on November 22, 2019 (GMT -0500)
Fort Lauderdale-Hollywood International

Weather History for KFLL - August, 2019

Change the Weather History Date:

Monday, August 19, 2019

  Actual Average Record
Temperature  
Mean Temperature 84 °F 84 °F  
Max Temperature 90 °F 90 °F 97 °F (1952)
Min Temperature 78 °F 79 °F 67 °F (1956)
Degree Days  
Heating Degree Days 0 0  
Month to date heating degree days 0 0  
Since 1 June heating degree days 0 0  
Since 1 July heating degree days 0 0  
Cooling Degree Days 19 20  
Month to date cooling degree days 358 380  
Year to date cooling degree days 3164 2939  
Since 1 June cooling degree days 1549 1521  
Growing Degree Days 34 (Base 50)    
Moisture  
Dew Point 74 °F    
Average Humidity 69    
Maximum Humidity 79    
Minimum Humidity 59    
Precipitation  
Precipitation T in 0.23 in 4.45 in (1976)
Month to date precipitation 7.21 4.34  
Year to date precipitation 35.87 37.97  
Snow  
Snow 0.00 in - - ()
Month to date snowfall 0.0  
Since 1 June snowfall 0.0  
Since 1 July snowfall 0.0  
Snow Depth 0.00 in    
Sea Level Pressure  
Sea Level Pressure 30.04 in    
Wind  
Wind Speed 11 mph (East)    
Max Wind Speed 28 mph    
Max Gust Speed 32 mph    
Visibility 10 miles    
Events Rain , Thunderstorm    
T = Trace of Precipitation, MM = Missing Value Source: NWS Daily Summary

Daily Weather History Graph

Daily Weather History Graph

Search for Another Location

Airport or City:

Astronomy

Aug. 19, 2019 Rise Set
Actual Time 6:54 AM EDT 7:53 PM EDT
Civil Twilight 6:31 AM EDT 8:17 PM EDT
Nautical Twilight 6:02 AM EDT 8:45 PM EDT
Astronomical Twilight 5:33 AM EDT 9:14 PM EDT
Moon 10:35 PM EDT (8/19) 10:16 AM EDT (8/19)
Length of Visible Light 13h 46m
Length of Day
12h 58m
Waning Gibbous, 85% of the Moon is Illuminated
Aug 19
Waning Gibbous
Aug 23
Last Quarter
Aug 30
New
Sep 5
First Quarter
Sep 14
Full

Hourly Weather History & Observations

Time (EDT) Temp. Heat Index Dew Point Humidity Pressure Visibility Wind Dir Wind Speed Gust Speed Precip Events Conditions
12:53 AM 84.0 °F 89.6 °F 72.0 °F 67% 30.07 in 10.0 mi East 9.2 mph - N/A   Partly Cloudy
1:53 AM 82.9 °F 88.8 °F 73.0 °F 72% 30.05 in 10.0 mi East 10.4 mph - N/A   Clear
2:53 AM 82.9 °F 90.2 °F 75.0 °F 77% 30.04 in 10.0 mi East 5.8 mph - N/A   Partly Cloudy
3:53 AM 82.9 °F 90.2 °F 75.0 °F 77% 30.02 in 10.0 mi East 9.2 mph - N/A   Partly Cloudy
4:53 AM 82.9 °F 90.2 °F 75.0 °F 77% 30.02 in 10.0 mi East 8.1 mph - N/A   Partly Cloudy
5:53 AM 82.9 °F 89.4 °F 73.9 °F 74% 30.02 in 10.0 mi East 8.1 mph - N/A   Partly Cloudy
6:53 AM 82.9 °F 90.2 °F 75.0 °F 77% 30.03 in 10.0 mi East 9.2 mph - N/A   Scattered Clouds
7:53 AM 84.0 °F 91.2 °F 73.9 °F 72% 30.04 in 10.0 mi East 9.2 mph - N/A   Scattered Clouds
8:53 AM 84.9 °F 93.3 °F 75.0 °F 72% 30.06 in 10.0 mi East 11.5 mph - N/A   Scattered Clouds
9:53 AM 88.0 °F 96.5 °F 73.9 °F 63% 30.08 in 10.0 mi ESE 15.0 mph - N/A   Scattered Clouds
10:53 AM 88.0 °F 95.6 °F 73.0 °F 61% 30.08 in 10.0 mi ESE 12.7 mph - N/A   Partly Cloudy
11:53 AM 89.1 °F 98.0 °F 73.9 °F 61% 30.07 in 10.0 mi East 13.8 mph - N/A   Partly Cloudy
12:53 PM 88.0 °F 96.5 °F 73.9 °F 63% 30.07 in 10.0 mi East 11.5 mph 19.6 mph N/A   Mostly Cloudy
1:53 PM 89.1 °F 99.1 °F 75.0 °F 63% 30.05 in 10.0 mi ENE 11.5 mph - N/A   Mostly Cloudy
2:16 PM 89.1 °F 98.0 °F 73.9 °F 61% 30.05 in 10.0 mi East 12.7 mph - N/A Thunderstorm Mostly Cloudy
2:37 PM 90.0 °F 101.3 °F 75.9 °F 63% 30.03 in 10.0 mi East 11.5 mph - N/A   Mostly Cloudy
2:53 PM 89.1 °F 99.1 °F 75.0 °F 63% 30.03 in 10.0 mi East 9.2 mph - N/A   Mostly Cloudy
3:53 PM 87.1 °F 93.6 °F 72.0 °F 61% 30.02 in 10.0 mi East 10.4 mph - N/A   Mostly Cloudy
4:53 PM 87.1 °F 95.4 °F 73.9 °F 65% 30.00 in 10.0 mi East 15.0 mph - N/A   Mostly Cloudy
5:53 PM 87.1 °F 95.4 °F 73.9 °F 65% 30.00 in 10.0 mi East 16.1 mph - N/A   Mostly Cloudy
6:53 PM 84.9 °F 94.1 °F 75.9 °F 74% 30.00 in 10.0 mi East 13.8 mph - N/A   Mostly Cloudy
7:53 PM 82.9 °F 88.8 °F 73.0 °F 72% 30.02 in 10.0 mi East 13.8 mph - 0.00 in   Scattered Clouds
8:26 PM 82.9 °F 89.4 °F 73.9 °F 74% 30.04 in 10.0 mi SE 20.7 mph 27.6 mph N/A   Mostly Cloudy
8:53 PM 78.1 °F - 73.0 °F 84% 30.04 in 10.0 mi SE 15.0 mph - 0.00 in Rain Light Rain
9:53 PM 80.1 °F 84.5 °F 73.9 °F 81% 30.06 in 10.0 mi SE 4.6 mph - 0.00 in   Mostly Cloudy
10:53 PM 81.0 °F 85.8 °F 73.0 °F 77% 30.06 in 10.0 mi SE 15.0 mph - N/A   Scattered Clouds
11:53 PM 81.0 °F 85.8 °F 73.0 °F 77% 30.06 in 10.0 mi SSE 8.1 mph - N/A   Mostly Cloudy